カタログに戻る

SPARTAN

運用中科学PO
NORAD 48964·PAYLOAD·🇧🇬 Bulgaria

打ち上げ Jun 30, 2021 から Cape Canaveral Space Force Station

Loading…

次のパス (今後24時間)

TLE

最新Source: Space-Track

元期: Sep 13, 2026, 12:58 UTC

1 48964U 21059CP  26256.54062044  .00482381  11813-3  56158-3 0  9995
2 48964  97.6587 108.5303 0001839 237.0489 123.0617 16.08830937291972

AllMySatでSPARTANをリアルタイム追跡

Download on the App Store